GW2918 Weather Reports


time (UTC)temp
C
wind
direction
speed
KPH
gust
KPH
rain 1hr
cm
rain 24hr
cm
rain mn
cm
humidity
%
barometer
mb
20260901074318 20 225 0.0 3.2 0.00 0.00 0.00 99 1018.6
20260901073315 20 191 3.2 4.8 0.00 0.00 0.00 99 1018.9
20260901072311 20 213 3.2 4.8 0.00 0.00 0.00 99 1018.7
20260901071310 20 217 0.0 6.4 0.00 0.00 0.00 99 1018.9
20260901070305 20 156 0.0 3.2 0.00 0.00 0.00 99 1018.7
20260901065306 20 206 3.2 4.8 0.00 0.00 0.00 99 1019.0
20260901064303 20 202 3.2 4.8 0.00 0.00 0.00 99 1019.0
20260901063302 19 138 0.0 6.4 0.05 0.00 0.00 99 1018.8
20260901062259 19 187 3.2 3.2 0.00 0.00 0.00 99 1019.1
20260901061255 19 151 1.6 4.8 0.00 0.00 0.00 99 1019.0
20260901060251 19 217 0.0 4.8 0.00 0.00 0.00 99 1019.1
20260901055248 19 253 1.6 4.8 0.00 0.00 0.00 99 1019.3
20260901054247 19 197 1.6 3.2 0.00 0.00 0.00 99 1019.0
20260901053243 19 214 3.2 4.8 0.00 0.00 0.00 99 1019.5
20260901052240 19 175 1.6 3.2 0.00 0.00 0.00 99 1019.5
20260901051240 19 228 0.0 4.8 0.00 0.00 0.00 99 1019.2
20260901050236 19 166 1.6 3.2 0.00 0.00 0.00 99 1019.4
20260901045232 19 164 1.6 3.2 0.00 0.00 0.00 99 1019.4
20260901044229 19 218 3.2 3.2 0.00 0.00 0.00 99 1019.5
20260901043226 19 113 0.0 3.2 0.00 0.00 0.00 99 1019.5
20260901042226 19 175 0.0 4.8 0.00 0.00 0.00 99 1019.7
20260901041222 19 144 1.6 4.8 0.00 0.00 0.00 99 1019.6
20260901040222 19 164 1.6 3.2 0.00 0.00 0.00 99 1019.7
20260901035220 19 294 0.0 3.2 0.00 0.33 0.33 99 1019.5
20260901034220 19 217 0.0 4.8 0.00 0.33 0.33 99 1019.4
20260901033219 19 187 0.0 4.8 0.00 0.33 0.33 99 1019.5
20260901032218 19 209 4.8 6.4 0.00 0.33 0.33 99 1019.4
20260901031215 19 193 3.2 4.8 0.00 0.33 0.33 99 1019.4
20260901030210 19 196 3.2 3.2 0.00 0.33 0.33 99 1019.3
20260901025205 19 230 3.2 4.8 0.00 0.33 0.33 99 1019.6
20260901024204 19 210 0.0 4.8 0.05 0.33 0.33 99 1019.5
20260901023204 19 144 1.6 6.4 0.00 0.30 0.30 99 1019.8
20260901022200 19 235 4.8 9.7 0.05 0.30 0.30 99 1019.9
20260901021156 19 185 1.6 3.2 0.13 0.28 0.28 99 1020.4
20260901020153 19 190 4.8 8.0 0.05 0.28 0.28 99 1020.3
20260901015148 19 210 0.0 3.2 0.05 0.25 0.25 99 1020.4
20260901014144 19 195 0.0 6.4 0.00 0.25 0.25 99 1020.4
20260901013142 19 184 1.6 4.8 0.18 0.25 0.25 99 1020.3
20260901012137 19 195 4.8 4.8 0.05 0.23 0.23 99 1020.4
20260901011132 19 217 1.6 4.8 0.00 0.20 0.20 99 1020.3
20260901010132 19 206 3.2 6.4 0.00 0.20 0.20 99 1020.1
20260901005127 19 155 1.6 6.4 0.00 0.20 0.20 99 1020.4
20260901004127 19 197 4.8 4.8 0.00 0.20 0.20 99 1020.1
20260901003127 19 212 4.8 6.4 0.00 0.20 0.20 99 1019.7
20260901002122 19 211 8.0 8.0 0.00 0.20 0.20 99 1019.4
20260901001118 19 207 6.4 8.0 0.00 0.20 0.20 99 1019.4
20260901000115 19 171 6.4 16.1 0.00 0.20 0.20 99 1019.7
20260831235116 19 161 1.6 4.8 0.00 0.20 0.20 99 1019.8
20260831234111 20 195 3.2 11.3 0.00 0.20 0.20 99 1019.6
20260831233107 19 206 3.2 8.0 0.00 0.20 0.20 99 1019.8
20260831232104 20 199 6.4 9.7 0.00 0.20 0.20 99 1019.8
20260831231101 20 169 0.0 6.4 0.00 0.20 0.20 99 1019.9
20260831230057 20 209 4.8 8.0 0.00 0.20 0.20 99 1019.9
20260831225053 20 202 4.8 8.0 0.00 0.20 0.20 99 1020.1
20260831224049 20 202 8.0 14.5 0.00 0.20 0.20 99 1020.4
20260831223046 20 156 3.2 6.4 0.00 0.20 0.20 98 1020.1
20260831222042 20 183 1.6 9.7 0.00 0.20 0.20 98 1020.1
20260831221038 20 186 4.8 14.5 0.00 0.20 0.20 97 1020.1
20260831220035 20 208 6.4 8.0 0.00 0.20 0.20 97 1020.3
20260831215031 20 193 0.0 11.3 0.00 0.20 0.20 97 1020.5
20260831214030 20 179 3.2 6.4 0.00 0.20 0.20 98 1020.5
20260831213027 20 172 3.2 8.0 0.00 0.20 0.20 98 1020.4
20260831212024 20 272 3.2 12.9 0.00 0.20 0.20 98 1020.7
20260831211024 20 157 3.2 6.4 0.00 0.20 0.20 98 1020.8
20260831210021 20 216 6.4 8.0 0.00 0.20 0.20 98 1020.6
20260831205018 20 216 6.4 9.7 0.00 0.20 0.20 97 1020.8
20260831204016 20 199 6.4 16.1 0.00 0.20 0.20 97 1020.7
20260831203015 20 201 6.4 20.9 0.00 0.20 0.20 97 1020.5
20260831202015 19 156 3.2 9.7 0.00 0.20 0.20 99 1020.5
20260831201015 18 156 1.6 14.5 0.00 0.20 0.20 99 1020.8
20260831200012 18 179 3.2 14.5 0.00 0.20 0.20 99 1020.6
20260831195007 19 190 3.2 9.7 0.00 0.20 0.20 99 1020.8
20260831194002 19 192 4.8 12.9 0.00 0.20 0.20 99 1020.7
20260831192958 19 195 0.0 11.3 0.00 0.20 0.20 99 1021.0
20260831191954 19 197 3.2 19.3 0.00 0.20 0.20 98 1021.1
20260831190952 20 197 6.4 9.7 0.00 0.20 0.20 99 1021.1
20260831185951 19 201 8.0 9.7 0.00 0.20 0.20 99 1021.2
20260831184948 18 204 3.2 3.2 0.00 0.20 0.20 99 1021.1
20260831183944 18 200 9.7 9.7 0.00 0.20 0.20 99 1021.5
20260831182943 18 205 4.8 9.7 0.00 0.20 0.20 99 1021.6
20260831181939 18 207 3.2 9.7 0.00 0.20 0.20 99 1021.6
20260831180935 18 202 4.8 6.4 0.00 0.20 0.20 99 1021.5
20260831175934 18 141 3.2 3.2 0.13 0.20 0.20 99 1022.3
20260831174932 18 185 3.2 8.0 0.30 0.18 0.18 99 1022.0
20260831173927 18 188 6.4 8.0 0.13 0.15 0.15 99 1022.3
20260831172927 18 152 1.6 3.2 0.05 0.10 0.10 99 1022.4
20260831171923 18 175 1.6 11.3 0.05 0.10 0.10 99 1022.4
20260831170922 18 219 6.4 8.0 0.05 0.10 0.10 99 1022.6
20260831165920 18 185 3.2 9.7 0.00 0.08 0.08 99 1022.5
20260831164918 18 233 6.4 11.3 0.13 0.08 0.08 99 1022.6
20260831163915 18 199 3.2 6.4 0.00 0.05 0.05 99 1022.8
20260831162914 18 192 3.2 6.4 0.00 0.05 0.05 99 1022.3
20260831161914 18 199 3.2 6.4 0.00 0.05 0.05 99 1022.4
20260831160912 18 177 3.2 6.4 0.00 0.05 0.05 99 1022.7
20260831155908 18 214 3.2 9.7 0.00 0.05 0.05 99 1022.7
20260831154903 18 197 3.2 8.0 0.00 0.05 0.05 99 1022.5
20260831153903 18 184 0.0 3.2 0.00 0.05 0.05 99 1022.5
20260831152901 18 201 3.2 6.4 0.00 0.05 0.05 99 1022.6
20260831151857 18 187 3.2 12.9 0.00 0.05 0.05 99 1022.7
20260831150857 18 146 0.0 4.8 0.00 0.05 0.05 99 1022.8
20260831145852 18 208 0.0 6.4 0.00 0.05 0.05 99 1022.6
20260831144850 18 185 3.2 8.0 0.00 0.05 0.05 99 1022.6
20260831143846 18 148 0.0 6.4 0.00 0.05 0.05 99 1022.5
20260831142842 17 186 3.2 9.7 0.00 0.05 0.05 99 1022.6
20260831141837 17 183 0.0 3.2 0.00 0.05 0.05 99 1022.4
20260831140833 17 141 3.2 3.2 0.00 0.05 0.05 99 1022.5
20260831135832 17 159 0.0 8.0 0.00 0.05 0.05 99 1022.7
20260831134828 17 190 3.2 6.4 0.00 0.05 0.05 99 1022.5
20260831133824 17 175 1.6 1.6 0.00 0.05 0.05 99 1022.5
20260831132819 17 168 0.0 3.2 0.00 0.05 0.05 99 1022.5
20260831131814 17 209 0.0 3.2 0.00 0.05 0.05 99 1022.7
20260831130811 17 0 0.0 3.2 0.00 0.05 0.05 99 1022.4
20260831125806 17 170 0.0 3.2 0.00 0.05 0.05 99 1022.4
20260831124801 17 135 0.0 1.6 0.00 0.05 0.05 99 1022.6
20260831123757 17 145 0.0 3.2 0.00 0.05 0.05 99 1022.7
20260831122757 17 142 0.0 1.6 0.00 0.05 0.05 99 1022.8
20260831121752 17 129 0.0 3.2 0.00 0.05 0.05 99 1022.5
20260831120750 17 82 3.2 4.8 0.00 0.05 0.05 99 1022.4
20260831115745 17 99 4.8 4.8 0.00 0.05 0.05 99 1022.6
20260831114741 17 126 3.2 4.8 0.00 0.05 0.05 99 1022.7
20260831113736 17 142 0.0 0.0 0.00 0.05 0.05 99 1022.8
20260831112735 17 142 0.0 3.2 0.00 0.05 0.05 99 1022.7
20260831111732 16 132 1.6 1.6 0.00 0.05 0.05 99 1022.4
20260831110730 16 55 0.0 3.2 0.00 0.05 0.05 99 1022.0
20260831105729 16 123 3.2 3.2 0.00 0.05 0.05 99 1022.3
20260831104726 16 73 1.6 3.2 0.00 0.05 0.05 99 1022.1
20260831103722 16 163 1.6 3.2 0.00 0.05 0.05 99 1022.3
20260831102717 16 133 0.0 3.2 0.00 0.05 0.05 99 1022.0
20260831101714 16 186 1.6 3.2 0.00 0.05 0.05 99 1021.9
20260831100711 16 133 0.0 1.6 0.00 0.05 0.05 99 1022.0
20260831095711 16 23 0.0 3.2 0.00 0.05 0.05 99 1022.0
20260831094707 16 70 1.6 4.8 0.00 0.05 0.05 99 1021.8
20260831093705 16 68 3.2 4.8 0.00 0.05 0.05 99 1021.9
20260831092702 16 79 1.6 3.2 0.00 0.05 0.05 99 1021.9
20260831091657 16 60 1.6 3.2 0.00 0.05 0.05 99 1022.0
20260831090653 16 87 0.0 3.2 0.00 0.05 0.05 99 1022.0
20260831085650 16 328 1.6 3.2 0.00 0.05 0.05 99 1022.1
20260831084647 16 150 1.6 3.2 0.00 0.05 0.05 99 1022.3
20260831083645 16 135 0.0 1.6 0.00 0.05 0.05 99 1022.1
20260831082644 16 104 3.2 3.2 0.00 0.05 0.05 99 1021.9
20260831081641 16 79 3.2 3.2 0.00 0.05 0.05 99 1021.9
20260831080638 16 64 6.4 8.0 0.00 0.05 0.05 99 1021.8
20260831075635 16 53 3.2 4.8 0.00 0.05 0.05 99 1021.9